Weather in Lakly

Russia / Republic of Bashkortostan     55°11′40″N   58°32′45″E
temp.,
°C
wind,
m/s
gust,
m/s
humid.,
%
clouds,
%
prec.,
mm/h
press.,
hPa
HPBL,
m
28 february, sun
sun2823:00−16se229199 0.6 100726
02:00−15ese348798 0.0 100681
05:00−15ese238999 0.0 100572
08:00−14ese2396100 0.3 1004135
11:00−11ese2389100 0.4 1004254
14:00−7e2385100 0.1 1004363
17:00−6ene3493100 0.3 1005251
20:00−10e229696 0.3 100736
1 march, mon
mon123:00−12e129694 0.5 100929
02:00−12ese119692 0.2 101130
05:00−13e119693 0.5 101321
08:00−14ne1196100 0.4 101421
11:00−11nnw119194 0.7 1015219
14:00−9nw2288100 0.2 1015375
17:00−9wnw2392100 0.4 1016329
20:00−13wsw369598 0.3 1017162
2 march, tue
tue223:00−15sw349592 0.3 101858
02:00−18wsw229791 0.0 101723
05:00−20sw239889 0.1 101627
08:00−21ssw339466 0.0 101532
11:00−14sw5108655 0.0 1012442
14:00−9sw6108194 0.0 1008623
17:00−8sw6118897 0.3 1006785
20:00−10wsw61389100 0.1 1005653
3 march, wed
wed323:00−12sw51387100 0.1 1005613
02:00−12ssw51385100 0.0 1002479
05:00−11ssw4138795 0.1 1001394
08:00−9ssw51487100 0.0 1000369
11:00−5sw6118797 0.0 1000550
14:00−2wsw71085100 0.1 999894
17:00−2wsw588798 0.1 1000910
20:00−5sw3594100 0.1 100198
4 march, thu
thu423:00−6sw4995100 0.3 1002221
02:00−8w3696100 0.4 1002138
05:00−10w3795100 0.8 1003196
08:00−14wsw339779 0.1 100534
11:00−10wsw599184 0.1 1005438
14:00−7wsw7108497 0.0 1005847
17:00−7wsw6108599 0.0 1005825
20:00−9ssw5148799 0.0 1003516